Погода во Влоцлавеке

Польша     52°39′17″N   19°04′00″E
темп.,
°C
ветер,
м/с
пор.,
м/с
влажн.,
%
обл.,
%
осадки,
мм/ч
давл.,
гПа
погр.,
м
25 февраля, чт
чт2501:00+7зюз238913 0.0 103023
04:00+6зюз23910 0.0 102923
07:00+6юз33920 0.0 102932
10:00+10юз35840 0.0 1028210
13:00+14юз46700 0.0 1027379
16:00+13юз36730 0.0 1025138
19:00+10юз47830 0.0 1025117
22:00+9зюз49870 0.0 1025166
26 февраля, пт
пт2601:00+8з48930 0.0 1026159
04:00+6з369618 0.0 1025145
07:00+5зсз399659 0.0 1026266
10:00+8з5974100 0.0 1026543
13:00+9зсз71163100 0.0 1026993
16:00+8зсз51065100 0.0 10251161
19:00+6зсз6127385 0.0 1026891
22:00+5зсз6148366 0.0 1025737
27 февраля, сб
сб2701:00+5зсз6138075 0.0 1026927
04:00+4зсз6128489 0.0 1026782
07:00+3сз5118790 0.0 1027565
10:00+5сз6107660 0.0 1029688
13:00+7ссз696130 0.0 10301116
16:00+7сз58610 0.0 10301221
19:00+4ссз38760 0.0 1032225
22:00+1ссз35880 0.0 1033123
28 февраля, вс
вс2801:000сз35900 0.0 1034133
04:000сз36880 0.0 1034149
07:000зсз248532 0.0 1034117
10:00+4зсз346549 0.0 1035355
13:00+7зсз355637 0.0 1034675
16:00+6зсз23640 0.0 1033127
19:00+3з33760 0.0 103439
22:00+2зсз34820 0.0 103459
1 марта, пн
пн101:00+1зсз23920 0.0 103547
04:000сз23960 0.0 103468
07:00+1ссз129521 0.0 1035112
10:00+3ссв1286100 0.0 1036290
13:00+5юв127495 0.0 1036533
16:00+6ю227313 0.0 1035474
19:00+2ююз22897 0.0 103622
22:00+1ю22920 0.0 103622